Regional Weather Roundup
Issued by NWS

Home | Current Version | Previous Version | Graphics & Text | Print | Product List | Glossary On
Versions: 1 2 3 4 5 6 7 8 9 10 11 12 13 14 15 16 17 18 19 20 21 22 23 24 25 26 27 28 29 30 31 32 33 34 35 36 37 38 39 40 41 42 43 44 45 46 47 48 49 50
000
ASUS43 KDTX 292301
RWRMI
MICHIGAN HOURLY REGIONAL WEATHER ROUNDUP
NATIONAL WEATHER SERVICE DETROIT/PONTIAC MI
700 PM EDT SUN MAR 29 2015

NOTE: "FAIR" INDICATES FEW OR NO CLOUDS BELOW 12,000 FEET WITH NO
SIGNIFICANT WEATHER AND/OR OBSTRUCTION TO VISIBILITY.

MIZ047>049-052>055-059>063-066>070-074>076-081>083-300000-
SOUTHEAST LOWER MICHIGAN

CITY           SKY/WX    TMP DP  RH WIND       PRES   REMARKS
ADRIAN         FLURRIES  38  26  62 SW13      29.88F WCI  30
ALMA           CLOUDY    34  32  91 SW17G29   29.74F WCI  24
ANN ARBOR      CLOUDY    39  25  57 SW15G28   29.86R WCI  31
BAD AXE        CLOUDY    33  30  88 SW17G23   29.76S WCI  22
CARO           CLOUDY    34  31  88 S12G21    29.77S WCI  25
DETROIT CITY   LGT RAIN  41  26  55 SW24G30   29.84F
DETROIT        LGT RAIN  40  26  57 S23G32    29.88F WCI  30
FLINT          CLOUDY    36  31  82 S13G24    29.81F WCI  27
GROSSE ILE     LGT RAIN  41  25  52 S18       29.85F
HILLSDALE      CLOUDY    38  24  57 S10G18    29.83F WCI  31
HOWELL         CLOUDY    35  30  83 S14G26    29.81F WCI  26

CITY           SKY/WX    TMP DP  RH WIND       PRES   REMARKS
JACKSON        CLOUDY    37  25  61 SW17G26   29.83F WCI  27
LAMBERTVILLE   CLOUDY    43  23  45 SW17G23   29.88F
LANSING        CLOUDY    36  27  69 S18G28    29.79F WCI  26
LAPEER         LGT SNOW  33  30  87 SW13G24   29.81S WCI  24
MASON          CLOUDY    35  28  74 SW9G16    29.81F WCI  28
MONROE         LGT RAIN  41  25  52 SW15G23   29.86F
MT. CLEMENS    FLURRIES  38  28  67 S20G28    29.82F WCI  28
PONTIAC        CLOUDY    34  29  82 S15G26    29.82F WCI  24
PORT HOPE        N/A     34  30  85 S13G20    29.74F WCI  25
PORT HURON     LGT SNOW  34  30  86 S16G24    29.84F WCI  23
TRI CITIES     CLOUDY    36  30  79 S23G33    29.74F WCI  24
TROY           CLOUDY    38  28  66 SW17G26   29.87F WCI  29
SAGINAW HB     CLOUDY    34  32  93 S18G31    29.76F WCI  23
$$
MIZ043>046-050>051-056>058-064>065-071>073-077>080-300000-
SOUTHWEST LOWER MICHIGAN

CITY           SKY/WX    TMP DP  RH WIND       PRES   REMARKS
BATTLE CREEK   CLOUDY    38  26  62 SW23G30   29.81F WCI  27
BENTON HARBOR  CLOUDY    40  29  64 S15G22    29.79F WCI  32
BIG RAPIDS     CLOUDY    34  30  86 SW14G28   29.65F WCI  24
COLDWATER      CLOUDY    38  24  57 SW15G28   29.84F WCI  29
FREMONT        CLOUDY    34  30  83 SW22      29.67F WCI  22
HOLLAND        CLOUDY    40  28  62 SW31G41   29.74F WCI  28
GRAND RAPIDS   CLOUDY    37  27  67 SW22G32   29.74F WCI  26
IONIA          CLOUDY    36  29  76 SW17G26   29.75F WCI  26
KALAMAZOO      CLOUDY    38  26  62 S17       29.81F WCI  28
LUDINGTON      LGT SNOW  36  32  87 SW20G30   29.64F WCI  25
MARSHALL       CLOUDY    37  24  58 SW18G25   29.81F WCI  27
MOUNT PLEASANT CLOUDY    33  31  91 S14G28    29.71F FOG     WCI  24
MUSKEGON       LGT SNOW  36  29  75 S24G39    29.70F WCI  24
SOUTH HAVEN    CLOUDY    41  28  60 S12G21    29.77F
$$
MIZ016>042-300000-
NORTHERN LOWER MICHIGAN

CITY           SKY/WX    TMP DP  RH WIND       PRES   REMARKS
ALPENA         MIX PCPN  34  29  82 S15G22    29.62F WCI  24
BEAVER ISLAND  SNOW      32  32  99 SW16G24   29.51F VSB 1/2 WCI  22
BELLAIRE       LGT SNOW  34  32  92 S12       29.58F WCI  25
CADILLAC       LGT SNOW  32  31  94 S15G23    29.59F WCI  22
CHARLEVOIX     LGT SNOW  33  32  96 S12G24    29.56F WCI  24
FRANKFORT      LGT RAIN  36  31  82 SW15G31   29.60S WCI  27
GAYLORD        LGT SNOW  31  30  96 SW18G31   29.55F VSB 3/4 WCI  19
GRAYLING       MIX PCPN  32  30  92 SW12G23   29.60F WCI  23
HARBOR SPRINGS LGT SNOW  32  31  96 SW10G17   29.54F WCI  24
HOUGHTON LAKE  CLOUDY    32  29  88 SW20G26   29.63F FOG     WCI  20
MANISTEE       CLOUDY    34  28  80 S16G25    29.62S WCI  23
OSCODA         CLOUDY    35  31  86 SW23G32   29.66F WCI  23
PELLSTON       LGT SNOW  34  30  85 S16G28    29.54F FOG     WCI  24
ROGERS CITY    LGT RAIN  32  32  99 S13       29.60F WCI  23
TRAVERSE CITY  LGT SNOW  35  32  88 SW8G17    29.57F FOG     WCI  29
$$
MIZ007>008-015-300000-
EASTERN UPPER MICHIGAN

CITY           SKY/WX    TMP DP  RH WIND       PRES   REMARKS
KINROSS        CLOUDY    32  32 100 S7        29.52F WCI  26
MACKINAC ISLAN LGT SNOW  33  32  98 S12G20    29.52F WCI  24
NEWBERRY       SNOW      32  31  98 S17G28    29.47F VSB 1/4 WCI  20
S. S. MARIE    LGT SNOW  32  30  92 S8        29.51F FOG     WCI  25
$$
MIZ004>006-011>014-085-300000-
CENTRAL UPPER MICHIGAN

CITY           SKY/WX    TMP DP  RH WIND       PRES   REMARKS
MANISTIQUE     LGT SNOW  32  32 100 SW9G20    29.48F WCI  24
ESCANABA       CLOUDY    34  30  86 SW10      29.49S WCI  26
MENOMINEE      CLOUDY    36  34  93 W9        29.53R WCI  29
SAWYER-GWINN   SNOW      32  32 100 SW8       29.45R VSB 1/2 WCI  25
$$
MIZ001>003-009>011-084-300000-
WESTERN UPPER MICHIGAN

CITY           SKY/WX    TMP DP  RH WIND       PRES   REMARKS
IRON MOUNTAIN  CLOUDY    37  32  82 NW17G30   29.48R WCI  27
HOUGHTON       LGT SNOW  35  32  88 NW23G29   29.48R FOG     WCI  23
COPPER HARBOR    N/A     33  31  92 N20G31    29.45R WCI  21
IRONWOOD       CLOUDY    37  30  75 NW16G26   29.61R WCI  28
$$

ABBREVIATIONS USED IN REMARKS
   TC - TEMPERATURE IN CELSIUS
  WCI - WIND CHILL INDEX
   HX - HEAT INDEX
  VSB - VISIBILITY



USA.gov is the U.S. government's official web portal to all federal, state and local government web resources and services.